Location: St. Louis
(38.6270°N, 90.1994°W)
Time: 18:16:29
(UTC-06:00)

Courier 1B - Visible Passes

Search period start: 29 November 2021 00:00
Search period end: 09 December 2021 00:00
Orbit: 962 x 1209 km, 28.3° (Epoch: 29 November)

Date Brightness Start Highest point End Pass type
(mag) Time Alt. Az. Time Alt. Az. Time Alt. Az.
29 Nov 9.4 17:22:21 10° SSW 17:27:32 21° SSE 17:32:31 10° ESE visible
29 Nov 8.6 19:14:45 10° SW 19:20:53 33° S 19:20:53 33° S visible
30 Nov 8.8 18:21:05 10° SW 18:27:15 31° S 18:30:30 21° SE visible
30 Nov 9.4 20:14:33 10° WSW 20:17:24 22° SW 20:17:24 22° SW visible
01 Dec 9.1 17:27:30 10° SW 17:33:35 28° SSE 17:39:23 10° ESE visible
01 Dec 8.6 19:20:43 10° WSW 19:27:02 35° S 19:27:02 35° S visible
02 Dec 8.7 18:26:54 10° WSW 18:33:22 35° S 18:36:41 23° SE visible
02 Dec 9.6 20:20:51 10° WSW 20:23:35 21° SW 20:23:35 21° SW visible
03 Dec 8.9 17:33:07 10° SW 17:39:40 34° S 17:45:54 10° ESE visible
03 Dec 8.7 19:26:53 10° WSW 19:33:10 34° S 19:33:15 33° S visible
04 Dec 8.8 18:32:56 10° WSW 18:39:31 36° S 18:42:57 23° SE visible
04 Dec 9.7 20:27:24 10° WSW 20:29:52 18° SW 20:29:52 18° SW visible
05 Dec 8.9 17:39:02 10° WSW 17:45:48 37° S 17:52:11 10° ESE visible
05 Dec 9.0 19:33:14 10° WSW 19:39:15 29° SSW 19:39:37 28° S visible
06 Dec 9.0 18:39:10 10° WSW 18:45:36 32° S 18:49:25 20° SE visible
06 Dec 10.0 20:34:26 10° WSW 20:36:20 14° SW 20:36:20 14° SW visible
07 Dec 9.0 17:45:09 10° WSW 17:51:54 36° S 17:58:17 10° SE visible
07 Dec 9.3 19:39:55 10° WSW 19:45:14 22° SSW 19:46:13 21° S visible
08 Dec 9.3 18:45:38 10° WSW 18:51:37 27° SSW 18:56:12 14° SSE visible
